| time (UTC) | temp F | wind direction | speed MPH | gust MPH | rain 1hr in | rain 24hr in | rain mn in | humidity % | barometer mb |
| 20260504034503 | 68 | 192 | 2.0 | 7.0 | 0.00 | 0.00 | 0.00 | 61 | 1016.2 |
| 20260504034002 | 69 | 185 | 2.0 | 6.0 | 0.00 | 0.00 | 0.00 | 61 | 1016.1 |
| 20260504032502 | 69 | 186 | 2.0 | 6.0 | 0.00 | 0.00 | 0.00 | 60 | 1016.0 |
| 20260504032003 | 69 | 184 | 2.0 | 4.0 | 0.00 | 0.00 | 0.00 | 60 | 1016.1 |
| 20260504031502 | 69 | 185 | 1.0 | 4.0 | 0.00 | 0.00 | 0.00 | 60 | 1016.0 |
| 20260504031002 | 69 | 188 | 1.0 | 4.0 | 0.00 | 0.00 | 0.00 | 59 | 1016.0 |
| 20260504030002 | 70 | 184 | 2.0 | 6.0 | 0.00 | 0.00 | 0.00 | 58 | 1015.8 |
| 20260504025002 | 70 | 181 | 2.0 | 6.0 | 0.00 | 0.00 | 0.00 | 58 | 1015.9 |
| 20260504024502 | 70 | 185 | 2.0 | 5.0 | 0.00 | 0.00 | 0.00 | 58 | 1015.9 |
| 20260504024002 | 70 | 189 | 2.0 | 6.0 | 0.00 | 0.00 | 0.00 | 57 | 1015.9 |
| 20260504023002 | 71 | 186 | 2.0 | 5.0 | 0.00 | 0.00 | 0.00 | 56 | 1016.0 |
| 20260504022502 | 71 | 182 | 2.0 | 5.0 | 0.00 | 0.00 | 0.00 | 56 | 1016.0 |
| 20260504022003 | 71 | 177 | 2.0 | 5.0 | 0.00 | 0.00 | 0.00 | 56 | 1015.9 |
| 20260504021502 | 72 | 178 | 2.0 | 5.0 | 0.00 | 0.00 | 0.00 | 56 | 1015.9 |
| 20260504021002 | 72 | 190 | 2.0 | 6.0 | 0.00 | 0.00 | 0.00 | 55 | 1015.8 |
| 20260504020503 | 72 | 202 | 2.0 | 6.0 | 0.00 | 0.00 | 0.00 | 55 | 1015.8 |
| 20260504020002 | 72 | 192 | 2.0 | 5.0 | 0.00 | 0.00 | 0.00 | 55 | 1015.8 |
| 20260504015502 | 72 | 176 | 2.0 | 5.0 | 0.00 | 0.00 | 0.00 | 54 | 1015.7 |
| 20260504015002 | 73 | 184 | 2.0 | 6.0 | 0.00 | 0.00 | 0.00 | 54 | 1015.7 |
| 20260504014502 | 73 | 190 | 1.0 | 6.0 | 0.00 | 0.00 | 0.00 | 53 | 1015.8 |
| 20260504014002 | 73 | 189 | 1.0 | 3.0 | 0.00 | 0.00 | 0.00 | 53 | 1015.7 |
| 20260504013502 | 74 | 187 | 1.0 | 5.0 | 0.00 | 0.00 | 0.00 | 52 | 1015.7 |
| 20260504013002 | 74 | 185 | 2.0 | 5.0 | 0.00 | 0.00 | 0.00 | 51 | 1015.7 |
| 20260504012502 | 74 | 187 | 2.0 | 5.0 | 0.00 | 0.00 | 0.00 | 51 | 1015.7 |
| 20260504012002 | 74 | 188 | 2.0 | 5.0 | 0.00 | 0.00 | 0.00 | 50 | 1015.7 |
| 20260504011002 | 75 | 189 | 2.0 | 6.0 | 0.00 | 0.00 | 0.00 | 48 | 1015.6 |
| 20260504010502 | 76 | 190 | 2.0 | 7.0 | 0.00 | 0.00 | 0.00 | 48 | 1015.5 |
| 20260504010002 | 76 | 186 | 3.0 | 7.0 | 0.00 | 0.00 | 0.00 | 47 | 1015.5 |
| 20260504005002 | 76 | 192 | 3.0 | 10.0 | 0.00 | 0.00 | 0.00 | 45 | 1015.6 |
| 20260504004502 | 77 | 194 | 2.0 | 9.0 | 0.00 | 0.00 | 0.00 | 45 | 1015.5 |
| 20260504004003 | 78 | 185 | 2.0 | 9.0 | 0.00 | 0.00 | 0.00 | 44 | 1015.5 |
| 20260504003502 | 78 | 188 | 4.0 | 11.0 | 0.00 | 0.00 | 0.00 | 43 | 1015.5 |
| 20260504003003 | 79 | 193 | 4.0 | 11.0 | 0.00 | 0.00 | 0.00 | 42 | 1015.5 |
| 20260504002503 | 80 | 199 | 4.0 | 8.0 | 0.00 | 0.00 | 0.00 | 42 | 1015.5 |
| 20260504001502 | 80 | 189 | 4.0 | 8.0 | 0.00 | 0.00 | 0.00 | 42 | 1015.7 |
| 20260504001002 | 80 | 192 | 4.0 | 12.0 | 0.00 | 0.00 | 0.00 | 42 | 1015.7 |
| 20260504000503 | 80 | 188 | 5.0 | 12.0 | 0.00 | 0.00 | 0.00 | 41 | 1015.7 |
| 20260504000003 | 80 | 187 | 5.0 | 12.0 | 0.00 | 0.00 | 0.00 | 41 | 1015.7 |
| 20260503235502 | 80 | 188 | 6.0 | 12.0 | 0.00 | 0.00 | 0.00 | 41 | 1015.7 |
| 20260503235003 | 80 | 187 | 5.0 | 14.0 | 0.00 | 0.00 | 0.00 | 42 | 1015.7 |
| 20260503234002 | 81 | 190 | 5.0 | 16.0 | 0.00 | 0.00 | 0.00 | 41 | 1015.8 |
| 20260503233503 | 80 | 192 | 5.0 | 16.0 | 0.00 | 0.00 | 0.00 | 40 | 1015.9 |
| 20260503233003 | 81 | 192 | 4.0 | 16.0 | 0.00 | 0.00 | 0.00 | 40 | 1015.9 |
| 20260503232502 | 81 | 185 | 4.0 | 11.0 | 0.00 | 0.00 | 0.00 | 41 | 1015.9 |
| 20260503232002 | 81 | 179 | 4.0 | 11.0 | 0.00 | 0.00 | 0.00 | 41 | 1016.0 |
| 20260503231503 | 81 | 178 | 4.0 | 13.0 | 0.00 | 0.00 | 0.00 | 41 | 1015.9 |
| 20260503231002 | 81 | 189 | 5.0 | 13.0 | 0.00 | 0.00 | 0.00 | 39 | 1015.9 |
| 20260503230503 | 82 | 190 | 5.0 | 13.0 | 0.00 | 0.00 | 0.00 | 41 | 1015.9 |
| 20260503230002 | 81 | 173 | 4.0 | 13.0 | 0.00 | 0.00 | 0.00 | 40 | 1016.0 |
| 20260503225503 | 81 | 176 | 5.0 | 11.0 | 0.00 | 0.00 | 0.00 | 41 | 1015.9 |
| 20260503225002 | 81 | 193 | 5.0 | 13.0 | 0.00 | 0.00 | 0.00 | 41 | 1016.0 |
| 20260503224503 | 81 | 192 | 5.0 | 13.0 | 0.00 | 0.00 | 0.00 | 41 | 1016.1 |
| 20260503224002 | 82 | 187 | 5.0 | 13.0 | 0.00 | 0.00 | 0.00 | 41 | 1016.0 |
| 20260503223503 | 82 | 197 | 5.0 | 11.0 | 0.00 | 0.00 | 0.00 | 41 | 1016.1 |
| 20260503223003 | 83 | 204 | 4.0 | 9.0 | 0.00 | 0.00 | 0.00 | 40 | 1016.1 |
| 20260503222502 | 83 | 188 | 4.0 | 9.0 | 0.00 | 0.00 | 0.00 | 39 | 1016.1 |
| 20260503221503 | 84 | 214 | 2.0 | 9.0 | 0.00 | 0.00 | 0.00 | 39 | 1016.4 |
| 20260503221003 | 84 | 208 | 3.0 | 10.0 | 0.00 | 0.00 | 0.00 | 38 | 1016.3 |
| 20260503220003 | 84 | 235 | 4.0 | 11.0 | 0.00 | 0.00 | 0.00 | 40 | 1016.5 |
| 20260503215503 | 83 | 226 | 4.0 | 12.0 | 0.00 | 0.00 | 0.00 | 39 | 1016.4 |
| 20260503215002 | 84 | 198 | 4.0 | 12.0 | 0.00 | 0.00 | 0.00 | 38 | 1016.6 |
| 20260503214503 | 84 | 195 | 4.0 | 11.0 | 0.00 | 0.00 | 0.00 | 40 | 1016.7 |
| 20260503214003 | 84 | 196 | 3.0 | 11.0 | 0.00 | 0.00 | 0.00 | 39 | 1016.7 |
| 20260503213503 | 84 | 202 | 3.0 | 8.0 | 0.00 | 0.00 | 0.00 | 39 | 1016.8 |
| 20260503212503 | 83 | 203 | 5.0 | 12.0 | 0.00 | 0.00 | 0.00 | 37 | 1016.9 |
| 20260503212002 | 83 | 198 | 5.0 | 12.0 | 0.00 | 0.00 | 0.00 | 38 | 1017.0 |
| 20260503211503 | 83 | 200 | 5.0 | 12.0 | 0.00 | 0.00 | 0.00 | 38 | 1017.0 |
| 20260503210502 | 84 | 196 | 4.0 | 10.0 | 0.00 | 0.00 | 0.00 | 36 | 1017.2 |
| 20260503210003 | 84 | 195 | 4.0 | 10.0 | 0.00 | 0.00 | 0.00 | 35 | 1017.3 |
| 20260503205503 | 84 | 197 | 4.0 | 9.0 | 0.00 | 0.00 | 0.00 | 36 | 1017.4 |
| 20260503205002 | 84 | 192 | 4.0 | 9.0 | 0.00 | 0.00 | 0.00 | 38 | 1017.4 |
| 20260503204503 | 84 | 202 | 3.0 | 9.0 | 0.00 | 0.00 | 0.00 | 37 | 1017.5 |
| 20260503203503 | 84 | 215 | 4.0 | 13.0 | 0.00 | 0.00 | 0.00 | 36 | 1017.7 |
| 20260503203002 | 84 | 194 | 5.0 | 13.0 | 0.00 | 0.00 | 0.00 | 35 | 1017.8 |
| 20260503202002 | 84 | 203 | 3.0 | 10.0 | 0.00 | 0.00 | 0.00 | 37 | 1018.0 |
| 20260503201503 | 84 | 197 | 4.0 | 9.0 | 0.00 | 0.00 | 0.00 | 38 | 1018.1 |
| 20260503201003 | 84 | 205 | 3.0 | 11.0 | 0.00 | 0.00 | 0.00 | 37 | 1018.1 |
| 20260503200503 | 84 | 205 | 3.0 | 11.0 | 0.00 | 0.00 | 0.00 | 37 | 1018.3 |
| 20260503200003 | 84 | 191 | 4.0 | 10.0 | 0.00 | 0.00 | 0.00 | 38 | 1018.3 |
| 20260503195503 | 84 | 203 | 4.0 | 9.0 | 0.00 | 0.00 | 0.00 | 37 | 1018.4 |
| 20260503195003 | 84 | 206 | 4.0 | 11.0 | 0.00 | 0.00 | 0.00 | 37 | 1018.5 |
| 20260503194003 | 84 | 260 | 3.0 | 9.0 | 0.00 | 0.00 | 0.00 | 39 | 1018.7 |
| 20260503193003 | 84 | 258 | 3.0 | 11.0 | 0.00 | 0.00 | 0.00 | 39 | 1018.8 |
| 20260503192503 | 83 | 267 | 3.0 | 11.0 | 0.00 | 0.00 | 0.00 | 39 | 1018.9 |
| 20260503192003 | 84 | 234 | 3.0 | 8.0 | 0.00 | 0.00 | 0.00 | 41 | 1018.9 |
| 20260503191503 | 84 | 224 | 3.0 | 8.0 | 0.00 | 0.00 | 0.00 | 39 | 1019.0 |
| 20260503190502 | 84 | 217 | 3.0 | 9.0 | 0.00 | 0.00 | 0.00 | 39 | 1019.1 |
| 20260503190003 | 84 | 238 | 3.0 | 9.0 | 0.00 | 0.00 | 0.00 | 40 | 1019.2 |
| 20260503185503 | 83 | 240 | 4.0 | 10.0 | 0.00 | 0.00 | 0.00 | 41 | 1019.2 |
| 20260503185003 | 83 | 213 | 4.0 | 10.0 | 0.00 | 0.00 | 0.00 | 41 | 1019.3 |
| 20260503184003 | 83 | 239 | 2.0 | 8.0 | 0.00 | 0.00 | 0.00 | 43 | 1019.5 |
| 20260503183502 | 83 | 222 | 4.0 | 13.0 | 0.00 | 0.00 | 0.00 | 42 | 1019.6 |
| 20260503183003 | 83 | 214 | 3.0 | 13.0 | 0.00 | 0.00 | 0.00 | 42 | 1019.8 |
| 20260503182503 | 83 | 223 | 2.0 | 9.0 | 0.00 | 0.00 | 0.00 | 43 | 1019.9 |
| 20260503182004 | 83 | 208 | 2.0 | 8.0 | 0.00 | 0.00 | 0.00 | 43 | 1019.9 |
| 20260503181504 | 83 | 234 | 2.0 | 7.0 | 0.00 | 0.00 | 0.00 | 44 | 1020.0 |
| 20260503180003 | 82 | 247 | 3.0 | 7.0 | 0.00 | 0.00 | 0.00 | 43 | 1020.3 |
| 20260503175503 | 82 | 217 | 3.0 | 9.0 | 0.00 | 0.00 | 0.00 | 45 | 1020.3 |
| 20260503175002 | 82 | 218 | 3.0 | 9.0 | 0.00 | 0.00 | 0.00 | 45 | 1020.4 |
| 20260503174503 | 81 | 240 | 3.0 | 10.0 | 0.00 | 0.00 | 0.00 | 45 | 1020.4 |
| 20260503174003 | 81 | 216 | 3.0 | 10.0 | 0.00 | 0.00 | 0.00 | 45 | 1020.5 |
| 20260503173503 | 81 | 221 | 4.0 | 10.0 | 0.00 | 0.00 | 0.00 | 45 | 1020.5 |
| 20260503173003 | 80 | 234 | 3.0 | 9.0 | 0.00 | 0.00 | 0.00 | 45 | 1020.6 |
| 20260503172503 | 80 | 261 | 3.0 | 10.0 | 0.00 | 0.00 | 0.00 | 48 | 1020.8 |
| 20260503172003 | 80 | 280 | 4.0 | 10.0 | 0.00 | 0.00 | 0.00 | 48 | 1020.8 |
| 20260503171503 | 80 | 248 | 3.0 | 9.0 | 0.00 | 0.00 | 0.00 | 47 | 1020.8 |
| 20260503171004 | 80 | 229 | 3.0 | 9.0 | 0.00 | 0.00 | 0.00 | 47 | 1020.9 |
| 20260503170503 | 80 | 258 | 2.0 | 7.0 | 0.00 | 0.00 | 0.00 | 46 | 1021.1 |
| 20260503151003 | 74 | 253 | 3.0 | 9.0 | 0.00 | 0.00 | 0.00 | 55 | 1021.4 |
| 20260503150503 | 74 | 249 | 3.0 | 8.0 | 0.00 | 0.00 | 0.00 | 55 | 1021.4 |
| 20260503072503 | 59 | 230 | 0.0 | 1.0 | 0.00 | 0.00 | 0.00 | 70 | 1020.2 |
| 20260503071504 | 59 | 196 | 0.0 | 1.0 | 0.00 | 0.00 | 0.00 | 70 | 1020.3 |
| 20260503071003 | 59 | 200 | 0.0 | 1.0 | 0.00 | 0.00 | 0.00 | 70 | 1020.3 |
| 20260503070503 | 59 | 229 | 0.0 | 1.0 | 0.00 | 0.00 | 0.00 | 70 | 1020.4 |
| 20260503054503 | 61 | 210 | 0.0 | 1.0 | 0.00 | 0.00 | 0.00 | 67 | 1020.1 |
| 20260503054003 | 61 | 210 | 0.0 | 1.0 | 0.00 | 0.00 | 0.00 | 66 | 1020.1 |
| 20260503053503 | 61 | 210 | 0.0 | 1.0 | 0.00 | 0.00 | 0.00 | 66 | 1020.2 |
| 20260503052004 | 61 | 198 | 0.0 | 3.0 | 0.00 | 0.00 | 0.00 | 67 | 1020.0 |
| 20260503051503 | 61 | 191 | 0.0 | 3.0 | 0.00 | 0.00 | 0.00 | 67 | 1020.1 |
| 20260503051003 | 61 | 175 | 0.0 | 1.0 | 0.00 | 0.00 | 0.00 | 67 | 1020.0 |
| 20260503050504 | 61 | 173 | 0.0 | 1.0 | 0.00 | 0.00 | 0.00 | 67 | 1020.0 |
| 20260503050005 | 62 | 174 | 0.0 | 1.0 | 0.00 | 0.00 | 0.00 | 67 | 1020.0 |
| 20260503045502 | 62 | 174 | 0.0 | 1.0 | 0.00 | 0.00 | 0.00 | 66 | 1020.0 |
| 20260503045002 | 62 | 173 | 0.0 | 1.0 | 0.00 | 0.00 | 0.00 | 66 | 1020.0 |
| 20260503044502 | 62 | 173 | 0.0 | 1.0 | 0.00 | 0.00 | 0.00 | 66 | 1020.0 |
| 20260503044001 | 63 | 174 | 0.0 | 2.0 | 0.00 | 0.00 | 0.00 | 65 | 1020.0 |
| 20260503043001 | 63 | 194 | 0.0 | 3.0 | 0.00 | 0.00 | 0.00 | 65 | 1020.1 |
| 20260503042501 | 63 | 192 | 0.0 | 3.0 | 0.00 | 0.00 | 0.00 | 65 | 1019.9 |
| 20260503041501 | 63 | 181 | 1.0 | 2.0 | 0.00 | 0.00 | 0.00 | 64 | 1020.0 |
| 20260503041001 | 63 | 176 | 1.0 | 2.0 | 0.00 | 0.00 | 0.00 | 65 | 1020.1 |
| 20260503040501 | 63 | 183 | 1.0 | 3.0 | 0.00 | 0.00 | 0.00 | 65 | 1020.1 |
| 20260503040002 | 63 | 185 | 1.0 | 3.0 | 0.00 | 0.00 | 0.00 | 65 | 1020.1 |
| 20260503035501 | 62 | 178 | 0.0 | 3.0 | 0.00 | 0.00 | 0.00 | 65 | 1020.1 |
| 20260503035001 | 63 | 171 | 0.0 | 2.0 | 0.00 | 0.00 | 0.00 | 65 | 1020.0 |